When you browse on this site, cookies collect data to enhance your experience and personalize the content and advertising you see.
Visit our Privacy Policy to learn more. By continuing to use the site, you agree to this use of cookies and data.
  • In United Kingdom
  • List of Countries
  • For 7 days
  • Water Temperature
  • Weather Map
  • Weather Widgets
  • user-avatar
    Login

    Hourly Weather Sacapa

    Today, 18 August, Sunday

    Time Temperature Precipitation Wind Pressure Humidity
    00:00 +20°C° 0.3 mm 0 mps 696 mmHg 95%
    01:00 +20°C° 0 mm 0 mps 696 mmHg 96%
    02:00 +22°C° 0 mm 1 mps 696 mmHg 96%
    03:00 +22°C° 0 mm 1 mps 695 mmHg 96%
    04:00 +21°C° 0 mm 1 mps 695 mmHg 96%
    05:00 +19°C° 0 mm 0 mps 695 mmHg 96%
    06:00 +19°C° 0 mm 0 mps 695 mmHg 96%
    07:00 +21°C° 0 mm 0 mps 696 mmHg 90%
    08:00 +23°C° 0 mm 0 mps 697 mmHg 84%
    09:00 +27°C° 0 mm 1 mps 697 mmHg 77%
    10:00 +27°C° 0.8 mm 1 mps 697 mmHg 76%
    11:00 +28°C° 0.8 mm 1 mps 697 mmHg 76%
    12:00 +29°C° 0.8 mm 1 mps 697 mmHg 75%
    13:00 +28°C° 1.8 mm 1 mps 696 mmHg 78%
    14:00 +28°C° 1.8 mm 1 mps 696 mmHg 81%
    15:00 +27°C° 1.8 mm 1 mps 695 mmHg 84%
    16:00 +26°C° 2.3 mm 1 mps 695 mmHg 88%
    17:00 +25°C° 2.3 mm 1 mps 695 mmHg 91%
    18:00 +24°C° 2.3 mm 1 mps 695 mmHg 94%
    19:00 +23°C° 1.8 mm 1 mps 695 mmHg 95%
    20:00 +21°C° 1.8 mm 0 mps 696 mmHg 96%
    21:00 +20°C° 1.8 mm 0 mps 696 mmHg 97%
    22:00 +20°C° 1.1 mm 0 mps 696 mmHg 97%
    23:00 +20°C° 1.1 mm 0 mps 696 mmHg 97%

    Tomorrow, 19 August, Monday

    Time Temperature Precipitation Wind Pressure Humidity
    00:00 +20°C° 1.1 mm 0 mps 696 mmHg 97%
    01:00 +20°C° 0.6 mm 0 mps 696 mmHg 98%
    02:00 +19°C° 0.6 mm 0 mps 695 mmHg 98%
    03:00 +19°C° 0.6 mm 0 mps 695 mmHg 98%
    04:00 +19°C° 0.1 mm 0 mps 695 mmHg 98%
    05:00 +19°C° 0.1 mm 0 mps 695 mmHg 98%
    06:00 +19°C° 0.1 mm 0 mps 695 mmHg 98%
    07:00 +20°C° 0.2 mm 0 mps 696 mmHg 93%
    08:00 +22°C° 0.2 mm 0 mps 696 mmHg 87%
    09:00 +24°C° 0.2 mm 0 mps 697 mmHg 82%
    10:00 +25°C° 1 mm 0 mps 697 mmHg 82%
    11:00 +27°C° 1 mm 1 mps 696 mmHg 81%
    12:00 +28°C° 1 mm 1 mps 696 mmHg 81%
    13:00 +28°C° 1.3 mm 1 mps 696 mmHg 81%
    14:00 +28°C° 1.3 mm 1 mps 695 mmHg 81%
    15:00 +28°C° 1.3 mm 1 mps 695 mmHg 81%
    16:00 +26°C° 1.2 mm 1 mps 695 mmHg 85%
    17:00 +25°C° 1.2 mm 1 mps 695 mmHg 89%
    18:00 +24°C° 1.2 mm 1 mps 695 mmHg 93%
    19:00 +23°C° 0.7 mm 1 mps 695 mmHg 94%
    20:00 +22°C° 0.7 mm 1 mps 696 mmHg 95%
    21:00 +21°C° 0.7 mm 1 mps 696 mmHg 97%
    22:00 +19°C° 0.1 mm 0 mps 696 mmHg 97%
    23:00 +19°C° 0.1 mm 0 mps 696 mmHg 97%

    Day after tomorrow, 20 August, Tuesday

    Time Temperature Precipitation Wind Pressure Humidity
    00:00 +18°C° 0.1 mm 0 mps 696 mmHg 97%
    01:00 +18°C° 0 mm 0 mps 696 mmHg 97%
    02:00 +18°C° 0 mm 0 mps 695 mmHg 97%
    03:00 +18°C° 0 mm 0 mps 695 mmHg 97%
    04:00 +18°C° 0 mm 0 mps 695 mmHg 97%
    05:00 +18°C° 0 mm 0 mps 695 mmHg 97%
    06:00 +18°C° 0 mm 0 mps 695 mmHg 97%
    07:00 +19°C° 0 mm 0 mps 696 mmHg 91%
    08:00 +21°C° 0 mm 0 mps 697 mmHg 86%
    09:00 +23°C° 0 mm 0 mps 697 mmHg 80%
    10:00 +25°C° 0.1 mm 0 mps 697 mmHg 74%
    11:00 +26°C° 0.1 mm 0 mps 697 mmHg 68%
    12:00 +28°C° 0.1 mm 0 mps 697 mmHg 63%
    13:00 +28°C° 0.6 mm 0 mps 697 mmHg 65%
    14:00 +28°C° 0.6 mm 0 mps 696 mmHg 67%
    15:00 +28°C° 0.6 mm 0 mps 696 mmHg 70%
    16:00 +26°C° 1.2 mm 0 mps 696 mmHg 77%
    17:00 +24°C° 1.2 mm 0 mps 696 mmHg 84%
    18:00 +22°C° 1.2 mm 0 mps 696 mmHg 91%
    19:00 +22°C° 0.3 mm 0 mps 696 mmHg 92%
    20:00 +21°C° 0.3 mm 0 mps 697 mmHg 94%
    21:00 +20°C° 0.3 mm 0 mps 697 mmHg 95%
    22:00 +20°C° 0.1 mm 0 mps 697 mmHg 95%
    23:00 +20°C° 0.1 mm 0 mps 697 mmHg 96%

    21 August, Wednesday

    Time Temperature Precipitation Wind Pressure Humidity
    00:00 +19°C° 0.1 mm 0 mps 697 mmHg 96%
    01:00 +19°C° 0 mm 0 mps 696 mmHg 97%
    02:00 +19°C° 0 mm 0 mps 696 mmHg 97%
    03:00 +19°C° 0 mm 0 mps 696 mmHg 97%
    04:00 +19°C° 0.1 mm 0 mps 696 mmHg 97%
    05:00 +19°C° 0.1 mm 0 mps 696 mmHg 97%
    06:00 +19°C° 0.1 mm 0 mps 697 mmHg 97%
    07:00 +21°C° 0 mm 0 mps 697 mmHg 92%
    08:00 +22°C° 0 mm 0 mps 698 mmHg 86%
    09:00 +26°C° 0 mm 1 mps 698 mmHg 81%
    10:00 +28°C° 0 mm 1 mps 698 mmHg 75%
    11:00 +29°C° 0 mm 1 mps 698 mmHg 68%
    12:00 +30°C° 0 mm 1 mps 698 mmHg 62%
    13:00 +30°C° 0 mm 2 mps 697 mmHg 61%
    14:00 +31°C° 0 mm 2 mps 697 mmHg 60%
    15:00 +31°C° 0 mm 2 mps 696 mmHg 59%
    16:00 +29°C° 0.5 mm 2 mps 696 mmHg 69%
    17:00 +27°C° 0.5 mm 1 mps 696 mmHg 79%
    18:00 +25°C° 0.5 mm 1 mps 696 mmHg 88%
    19:00 +24°C° 0.1 mm 1 mps 696 mmHg 91%
    20:00 +23°C° 0.1 mm 1 mps 697 mmHg 94%
    21:00 +23°C° 0.1 mm 1 mps 697 mmHg 96%
    22:00 +22°C° 0.2 mm 1 mps 697 mmHg 97%
    23:00 +20°C° 0.2 mm 0 mps 697 mmHg 97%

    22 August, Thursday

    Time Temperature Precipitation Wind Pressure Humidity
    00:00 +20°C° 0.2 mm 0 mps 697 mmHg 98%
    01:00 +20°C° 0.2 mm 0 mps 697 mmHg 98%
    02:00 +20°C° 0.2 mm 0 mps 697 mmHg 97%
    03:00 +19°C° 0.2 mm 0 mps 696 mmHg 97%
    04:00 +19°C° 0 mm 0 mps 697 mmHg 97%
    05:00 +19°C° 0 mm 0 mps 697 mmHg 97%
    06:00 +19°C° 0 mm 0 mps 697 mmHg 97%
    07:00 +21°C° 0 mm 0 mps 697 mmHg 92%
    08:00 +23°C° 0 mm 0 mps 698 mmHg 87%
    09:00 +24°C° 0 mm 0 mps 698 mmHg 82%
    10:00 +26°C° 0 mm 0 mps 698 mmHg 75%
    11:00 +29°C° 0 mm 1 mps 698 mmHg 68%
    12:00 +31°C° 0 mm 1 mps 698 mmHg 61%
    13:00 +31°C° 0 mm 1 mps 697 mmHg 58%
    14:00 +32°C° 0 mm 1 mps 697 mmHg 55%
    15:00 +32°C° 0 mm 2 mps 696 mmHg 52%
    16:00 +30°C° 0 mm 1 mps 696 mmHg 61%
    17:00 +28°C° 0 mm 1 mps 696 mmHg 70%
    18:00 +26°C° 0 mm 1 mps 696 mmHg 79%
    19:00 +25°C° 0.1 mm 1 mps 696 mmHg 83%
    20:00 +24°C° 0.1 mm 1 mps 697 mmHg 88%
    21:00 +23°C° 0.1 mm 1 mps 697 mmHg 93%
    22:00 +22°C° 0 mm 1 mps 697 mmHg 95%
    23:00 +22°C° 0 mm 1 mps 697 mmHg 96%

    23 August, Friday

    Time Temperature Precipitation Wind Pressure Humidity
    00:00 +20°C° 0 mm 0 mps 697 mmHg 98%
    01:00 +20°C° 0 mm 0 mps 697 mmHg 97%
    02:00 +20°C° 0 mm 0 mps 696 mmHg 97%
    03:00 +20°C° 0 mm 0 mps 696 mmHg 97%
    04:00 +20°C° 0 mm 0 mps 696 mmHg 97%
    05:00 +20°C° 0 mm 0 mps 696 mmHg 97%
    06:00 +19°C° 0 mm 0 mps 697 mmHg 96%
    07:00 +21°C° 0 mm 0 mps 697 mmHg 90%
    08:00 +23°C° 0 mm 0 mps 698 mmHg 83%
    09:00 +25°C° 0 mm 0 mps 698 mmHg 76%
    10:00 +27°C° 0.1 mm 0 mps 698 mmHg 71%
    11:00 +28°C° 0.1 mm 0 mps 698 mmHg 66%
    12:00 +30°C° 0.1 mm 0 mps 698 mmHg 60%
    13:00 +30°C° 0.4 mm 0 mps 698 mmHg 61%
    14:00 +30°C° 0.4 mm 0 mps 697 mmHg 61%
    15:00 +32°C° 0.4 mm 1 mps 696 mmHg 61%
    16:00 +29°C° 2.3 mm 1 mps 696 mmHg 71%
    17:00 +27°C° 2.3 mm 1 mps 696 mmHg 81%
    18:00 +25°C° 2.3 mm 1 mps 696 mmHg 91%
    19:00 +24°C° 1.1 mm 1 mps 697 mmHg 92%
    20:00 +22°C° 1.1 mm 0 mps 697 mmHg 93%
    21:00 +21°C° 1.1 mm 0 mps 697 mmHg 94%
    22:00 +21°C° 0.5 mm 0 mps 697 mmHg 95%
    23:00 +21°C° 0.5 mm 0 mps 697 mmHg 96%
    Show more